Temperature
15 15 15 16 16 16 16 16 16 16 15 15 15 15 15 15 14 14 14 14 14 14 14 14 14 14 13 13 13 13 12 12 12 12 12 12 12 12 11 11 11 11 11
15 15 15 16 16 16 16 16 16 16 15 15 15 15 15 14 14 14 14 14 14 14 14 14 14 14 13 13 13 13 12 12 12 12 12 12 11 11 11 11 11 11 11
14 15 15 15 15 16 16 15 15 15 15 15 15 14 14 14 14 14 14 14 14 14 14 13 13 13 13 13 13 12 12 12 12 11 11 11 11 11 11 11 11 11 10
14 14 14 15 15 15 15 15 15 15 15 15 14 14 14 14 14 14 14 14 14 13 13 13 13 13 13 13 12 12 12 12 11 11 11 11 11 11 10 10 10 10 10
14 14 14 14 15 15 15 15 15 15 15 14 14 14 14 14 14 14 14 14 14 13 13 13 13 13 13 12 12 12 12 11 11 11 11 10 10 10 10 10 10 10 10
13 14 14 14 14 14 14 14 14 14 14 14 14 14 14 14 13 13 13 13 13 13 13 13 13 13 12 12 12 12 11 11 11 11 10 10 10 10 10 10 10 9 9
13 13 13 14 14 14 14 14 14 14 14 14 13 13 13 13 13 13 13 13 13 13 13 13 13 12 12 12 12 11 11 11 10 10 10 10 10 9 9 9 9 9 9
13 13 13 13 14 14 14 14 14 14 13 13 13 13 13 13 13 13 13 13 13 13 13 13 12 12 12 12 11 11 11 10 10 10 10 9 9 9 9 9 9 9 9
13 13 13 13 13 13 14 14 14 14 13 13 13 13 13 13 13 13 13 13 12 12 12 12 12 12 11 11 11 10 10 10 9 9 9 9 9 9 8 8 8 8 8
12 12 12 12 13 13 13 14 14 14 14 13 13 13 13 13 13 12 12 12 12 12 12 11 11 11 11 11 10 10 10 9 9 9 8 8 8 8 8 8 8 8 8
12 12 12 12 12 13 13 13 13 13 13 13 13 13 13 13 13 13 12 12 12 12 11 11 11 11 10 10 10 10 9 9 8 8 8 8 7 7 7 7 7 7 7
12 12 12 12 12 12 13 13 13 13 13 13 13 13 13 12 12 13 13 12 12 11 11 11 10 10 10 10 9 9 9 8 8 7 7 7 7 7 7 7 7 7 7
11 11 11 12 12 12 12 12 12 12 12 12 12 12 12 12 12 12 12 12 11 11 10 10 10 10 9 9 9 8 8 8 7 7 7 6 6 6 6 6 6 6 6
11 11 11 11 11 12 12 12 11 12 12 12 12 12 12 12 12 12 12 11 11 10 10 10 10 9 9 8 8 8 7 7 7 6 6 6 5 5 5 5 5 5 5
11 11 11 11 11 11 11 11 11 11 11 11 11 11 11 11 11 11 11 11 11 10 10 9 9 9 8 8 7 7 7 6 6 6 5 5 5 5 5 5 5 5 5
10 10 10 11 11 11 11 11 11 11 11 11 11 11 11 11 11 11 11 10 10 10 9 9 9 8 8 7 7 6 6 6 5 5 5 4 4 4 4 4 4 4 4
10 10 10 10 10 10 10 10 10 10 10 10 10 10 10 10 10 10 10 10 10 9 9 9 8 7 7 6 6 6 6 5 5 4 4 4 4 4 4 4 4 4 4
9 9 10 10 10 10 10 10 10 10 10 10 10 9 9 9 9 9 9 9 9 9 9 8 7 7 6 6 5 5 5 5 4 4 3 3 3 3 3 3 3 3 4
9 9 9 9 9 9 9 9 9 9 9 9 9 9 9 9 9 9 9 9 9 8 8 7 7 6 6 5 5 4 4 4 3 3 3 3 3 3 3 3 3 3 3
8 8 8 8 8 8 8 8 8 8 8 8 8 8 8 8 8 8 8 8 8 8 7 7 7 6 5 5 4 4 4 3 3 3 3 3 2 2 2 2 3 3 3
7 7 7 7 7 7 7 7 7 8 8 8 8 8 8 8 8 7 8 8 7 7 7 6 6 6 5 5 4 4 3 3 2 2 2 2 2 2 2 2 2 2 3
6 6 6 7 7 7 7 7 7 7 7 7 7 7 7 7 7 7 7 7 7 6 6 6 6 6 5 5 4 3 3 2 2 2 2 2 2 2 2 2 2 2 2
5 5 5 6 6 6 6 6 6 6 6 6 6 6 6 6 6 6 6 6 6 6 5 5 5 5 5 4 4 3 2 2 2 2 1 2 2 2 2 2 2 2 2
4 4 4 4 5 5 5 5 5 5 5 5 5 6 5 6 6 6 6 5 5 5 5 5 5 4 4 4 3 3 2 1 1 1 1 1 1 1 1 1 2 2 2
3 3 3 3 3 4 4 4 4 4 4 5 5 5 5 5 5 5 5 5 4 4 4 4 4 4 3 3 2 2 2 1 1 1 1 0 1 1 1 1 1 2 2
2 2 2 2 2 2 3 3 3 3 3 3 4 4 4 4 4 4 4 4 4 4 4 3 3 3 3 2 2 2 1 1 1 1 1 1 1 1 1 1 1 1 1
Wind_Speed
9 8 9 11 11 12 11 9 8 7 6 7 7 7 6 7 8 10 9 11 10 8 6 4 2 3 3 3 3 2 2 2 1 1 0 1 1 1 2 2 3 4 4
10 9 9 9 10 12 12 10 8 6 5 5 5 6 7 7 8 9 9 10 10 8 6 4 2 2 2 2 2 1 0 1 1 1 1 1 1 2 3 3 4 5 5
13 10 10 9 10 13 12 9 7 6 4 4 5 5 5 6 7 8 9 9 8 7 6 4 2 1 1 1 1 0 0 1 1 1 1 2 2 2 3 4 5 5 6
17 11 9 10 12 12 9 7 6 5 5 5 4 3 3 5 6 7 8 8 8 7 6 4 2 1 0 0 0 1 1 2 2 2 2 2 2 3 4 4 5 6 6
18 12 9 9 12 9 7 8 6 5 5 5 4 3 3 3 4 6 6 7 8 8 6 5 4 2 1 0 1 1 2 3 3 3 3 3 3 3 4 5 6 6 7
16 13 9 10 10 8 8 8 7 5 5 5 4 3 2 2 3 4 4 6 7 8 7 6 5 4 3 2 2 2 2 3 3 3 3 3 4 4 4 5 6 7 8
13 10 9 10 10 10 10 9 6 6 4 4 4 2 1 0 2 3 3 4 4 7 8 8 7 6 5 5 4 4 3 3 3 2 2 3 3 4 5 5 6 7 7
11 10 10 10 10 9 9 9 6 5 4 5 4 3 1 1 1 1 2 4 4 5 6 7 8 7 7 6 5 5 4 3 2 1 2 3 3 3 4 5 6 6 7
10 9 9 9 9 9 10 10 9 9 6 5 4 5 4 5 2 1 2 3 4 4 3 6 8 8 8 7 6 6 5 4 2 2 2 2 3 4 5 5 6 7 8
10 9 9 9 9 8 9 10 9 7 8 7 4 3 3 4 4 2 1 1 3 4 4 4 6 8 9 8 7 6 5 4 3 3 3 4 5 5 5 6 7 7 8
9 9 9 9 9 8 9 10 9 8 7 7 6 4 3 2 2 4 3 2 1 2 3 4 5 7 9 9 7 6 5 4 4 4 4 4 6 6 6 6 7 8 8
6 9 9 9 9 8 9 9 10 10 8 8 6 5 5 4 4 4 4 3 3 2 2 2 4 6 8 9 8 7 6 5 4 4 5 5 6 6 6 7 7 8 9
5 8 8 9 8 8 8 8 9 9 9 9 8 6 5 5 4 4 4 3 3 2 2 2 2 6 8 9 8 8 6 5 4 4 5 6 6 6 6 6 7 8 9
6 7 8 8 8 8 7 7 7 7 7 8 9 8 5 5 5 5 5 5 4 2 2 3 2 4 8 9 9 8 6 5 4 4 5 5 5 5 5 6 7 8 9
4 5 6 7 7 7 7 8 7 7 7 7 8 8 6 5 5 4 5 5 6 6 6 5 3 3 6 8 9 9 7 5 4 4 3 3 3 3 4 6 7 8 8
2 4 5 6 6 7 7 7 6 7 8 7 6 8 7 5 5 5 5 4 5 5 5 4 3 3 5 7 9 8 7 5 4 4 3 2 1 2 3 5 6 7 8
1 3 4 5 5 6 7 7 8 8 9 8 7 8 8 7 7 6 5 5 5 4 4 2 2 3 4 6 6 6 6 5 4 4 3 2 1 1 2 4 5 6 8
0 2 3 4 5 6 6 7 8 9 10 10 9 9 9 7 8 7 7 7 6 5 5 5 3 3 4 6 5 4 4 5 5 5 5 3 2 1 1 3 4 5 7
2 1 1 3 4 5 5 6 7 8 9 9 9 10 10 10 10 8 8 7 6 5 4 5 4 3 2 3 4 3 3 2 4 5 5 5 3 2 1 2 3 4 6
3 3 2 2 3 3 5 5 6 6 7 8 8 9 9 11 11 10 9 8 7 6 5 5 4 4 3 3 4 3 3 2 2 2 4 4 3 2 2 2 2 3 5
5 4 3 3 2 3 3 4 5 5 7 7 7 8 9 10 12 11 9 9 10 8 7 6 5 4 4 4 5 4 4 2 2 2 1 1 2 1 2 2 1 2 4
6 5 5 3 3 3 4 5 4 5 5 7 7 6 7 9 11 13 13 14 13 11 10 7 6 7 7 6 5 5 4 3 3 3 3 2 1 2 2 3 2 1 2
6 6 6 5 4 5 5 6 5 4 5 6 7 6 5 6 9 8 10 12 12 13 13 9 8 8 7 8 8 6 5 4 4 4 3 2 1 2 3 4 3 2 1
5 5 6 6 6 6 7 6 6 4 4 5 6 7 7 7 8 9 8 7 7 7 8 7 7 7 7 8 8 8 7 4 2 1 3 3 2 2 1 2 3 2 1
6 5 6 6 7 7 8 8 6 3 4 5 6 7 8 8 12 13 10 8 6 4 5 8 9 9 11 12 11 7 6 4 3 3 3 3 2 1 1 1 3 2 2
6 6 7 6 7 7 9 9 6 3 4 4 4 6 10 11 14 15 11 10 10 7 6 6 6 7 7 9 13 8 8 5 3 4 4 4 3 2 1 1 1 1 1
Wind_Direction
169 169 171 172 173 173 174 175 179 184 195 206 210 207 206 200 189 186 188 191 191 191 190 197 222 249 246 246 259 272 259 235 201 190 142 70 38 1 342 346 342 334 329
175 174 175 177 180 183 183 183 186 186 194 198 206 205 203 197 185 181 184 190 195 196 195 195 212 254 253 256 262 258 184 152 154 115 77 61 38 20 354 342 336 329 320
180 178 179 183 187 188 186 183 188 186 190 196 203 198 188 185 176 178 182 186 191 197 198 195 200 246 268 282 251 203 159 120 99 89 82 51 38 25 10 355 343 331 321
183 181 183 187 187 186 184 182 183 183 189 188 189 186 170 165 167 173 175 180 181 181 187 188 191 204 234 10 56 123 74 87 79 67 61 51 26 8 351 339 333 323 318
186 183 185 187 183 185 187 188 184 178 179 181 177 170 167 165 163 160 161 172 174 172 169 161 151 129 125 97 48 114 93 92 87 78 62 49 22 360 347 343 339 332 319
187 184 183 184 179 183 188 187 179 177 172 167 157 148 160 173 166 165 164 164 167 168 164 153 140 117 98 93 81 91 92 101 96 79 51 30 9 355 339 335 334 332 328
187 185 185 182 181 186 190 185 174 173 171 150 126 110 18 33 172 179 164 157 156 161 157 152 142 129 103 91 80 72 86 96 96 67 37 11 356 345 338 338 339 338 338
188 189 188 186 186 185 184 182 170 168 171 165 149 138 170 301 272 199 177 169 162 144 140 145 142 134 120 102 85 74 76 73 58 28 0 356 359 352 347 351 350 350 350
190 189 192 189 189 189 191 188 184 177 179 187 175 160 167 204 208 224 204 176 161 147 138 137 138 137 128 115 95 80 73 54 27 356 340 354 19 19 14 7 1 357 353
189 191 196 195 192 194 196 194 191 185 175 187 190 190 175 156 163 181 227 174 159 158 158 143 135 134 131 121 109 93 76 55 36 20 22 37 31 18 15 12 2 356 355
191 193 199 201 202 202 200 198 195 191 186 187 181 171 167 152 157 160 188 191 169 179 166 152 143 139 137 130 118 104 86 63 43 34 34 29 25 24 15 11 2 358 354
194 194 195 200 203 204 205 204 201 199 197 190 185 177 172 171 184 171 178 182 186 191 161 154 152 148 146 138 129 118 101 81 59 46 42 38 35 26 14 9 3 358 355
196 196 194 197 198 200 202 199 198 200 196 192 192 194 190 186 165 161 160 163 171 178 163 164 170 159 154 148 140 130 112 94 75 61 51 48 42 29 14 4 0 358 353
196 194 191 194 196 192 192 195 195 197 196 196 196 187 185 186 177 172 165 157 161 185 195 193 168 170 162 157 151 141 127 116 98 81 68 57 45 31 19 12 6 360 353
190 189 194 194 197 195 195 194 197 194 193 198 195 188 182 185 180 177 165 166 168 189 210 195 181 176 164 158 156 147 140 135 125 112 100 83 58 35 21 13 7 1 354
178 188 197 201 200 199 197 195 194 194 194 199 193 188 188 183 175 176 173 169 172 177 194 176 172 161 163 160 164 157 154 152 149 153 149 124 75 33 20 9 1 359 355
184 205 207 204 204 206 204 203 204 196 198 200 195 192 194 182 180 180 174 171 173 166 176 156 136 142 153 163 160 163 169 169 175 183 181 175 158 41 13 3 360 358 359
261 220 215 211 211 213 210 209 209 203 202 202 201 197 196 189 187 180 180 181 179 169 164 167 162 159 167 174 166 166 176 185 191 200 198 199 205 232 337 353 357 358 359
350 323 244 227 219 217 218 218 215 209 207 208 205 203 198 189 195 187 183 180 173 164 153 158 164 159 156 161 156 168 176 188 206 210 206 208 216 224 273 320 349 358 1
353 335 296 259 242 230 222 220 218 212 209 210 209 207 202 198 198 189 186 181 169 166 160 157 160 162 162 159 159 173 190 201 217 210 206 204 207 214 254 284 337 358 4
352 338 318 301 277 248 235 229 222 216 212 212 211 210 207 202 195 191 187 181 175 175 170 171 172 168 176 174 187 174 183 174 218 208 186 206 192 222 265 278 305 343 357
350 347 334 307 288 279 276 258 239 223 215 211 211 208 204 197 195 195 192 186 182 179 182 182 185 191 193 185 169 170 159 161 221 204 172 216 180 214 241 247 254 292 348
344 337 331 319 303 291 283 270 255 239 222 213 206 199 199 199 190 186 188 187 191 193 187 181 188 194 183 182 169 168 171 178 199 178 154 202 197 220 240 241 232 240 311
331 324 318 315 304 294 289 278 268 249 231 218 208 201 197 193 189 179 172 172 178 189 188 183 188 186 180 174 174 172 168 146 106 135 158 185 196 218 234 247 245 236 251
324 315 308 306 300 294 291 283 272 244 237 229 217 206 198 197 196 184 174 173 174 182 184 177 178 178 177 175 163 139 141 144 175 202 184 171 175 181 217 260 258 241 241
310 311 307 304 298 291 289 282 269 242 240 236 226 217 210 205 200 193 184 181 188 189 167 157 154 158 158 170 174 168 163 159 162 200 193 163 159 148 207 278 276 267 275
Height
1514 1518 1521 1524 1527 1531 1533 1536 1539 1541 1543 1545 1547 1548 1549 1550 1551 1551 1552 1552 1552 1552 1552 1551 1551 1550 1550 1550 1549 1549 1548 1548 1548 1547 1547 1546 1546 1545 1544 1543 1542 1541 1540
1512 1515 1518 1521 1525 1528 1531 1534 1537 1539 1542 1544 1545 1546 1548 1549 1549 1550 1550 1551 1551 1551 1550 1550 1549 1549 1549 1548 1548 1547 1547 1547 1546 1546 1546 1545 1544 1544 1543 1542 1541 1540 1539
1508 1512 1516 1519 1522 1526 1529 1532 1535 1537 1539 1541 1543 1544 1546 1547 1547 1548 1548 1549 1549 1549 1549 1548 1548 1547 1547 1547 1546 1546 1545 1545 1545 1544 1544 1543 1543 1542 1541 1540 1539 1538 1537
1505 1509 1512 1516 1519 1523 1526 1529 1531 1534 1536 1538 1540 1542 1543 1544 1545 1546 1546 1547 1547 1547 1547 1546 1546 1546 1545 1545 1545 1544 1544 1543 1543 1543 1542 1542 1541 1540 1539 1538 1537 1536 1535
1501 1505 1509 1512 1516 1519 1522 1525 1528 1531 1533 1535 1538 1540 1541 1542 1543 1544 1544 1544 1545 1545 1545 1544 1544 1544 1544 1543 1543 1542 1542 1541 1541 1540 1540 1540 1539 1538 1537 1536 1535 1534 1533
1497 1501 1505 1509 1512 1515 1519 1522 1525 1528 1530 1533 1535 1537 1538 1539 1540 1541 1541 1542 1542 1542 1542 1542 1542 1542 1542 1541 1541 1541 1540 1539 1539 1538 1538 1537 1537 1536 1535 1533 1532 1531 1530
1493 1496 1500 1504 1508 1511 1514 1518 1521 1524 1527 1530 1532 1534 1535 1536 1537 1538 1538 1538 1539 1539 1539 1539 1540 1539 1539 1539 1539 1538 1538 1537 1537 1536 1535 1535 1534 1533 1532 1531 1530 1529 1527
1488 1491 1495 1499 1503 1506 1510 1513 1516 1519 1522 1525 1527 1529 1531 1533 1532 1533 1534 1535 1536 1536 1536 1537 1537 1537 1537 1537 1536 1536 1535 1535 1534 1533 1533 1532 1531 1530 1529 1528 1527 1526 1525
1483 1486 1490 1494 1498 1501 1504 1507 1511 1514 1516 1520 1522 1524 1525 1526 1528 1529 1530 1531 1532 1532 1533 1534 1534 1534 1534 1534 1533 1533 1532 1532 1531 1531 1530 1529 1528 1527 1526 1525 1524 1523 1522
1478 1481 1486 1489 1493 1496 1499 1502 1506 1509 1511 1514 1516 1518 1520 1521 1523 1524 1526 1526 1528 1528 1529 1530 1530 1531 1530 1530 1530 1529 1529 1529 1528 1528 1527 1527 1525 1524 1523 1522 1521 1520 1519
1473 1477 1481 1484 1488 1491 1494 1497 1500 1503 1505 1508 1510 1512 1514 1516 1517 1518 1520 1521 1523 1524 1525 1526 1526 1527 1527 1527 1526 1526 1525 1525 1525 1524 1524 1523 1522 1521 1520 1519 1518 1517 1515
1468 1472 1475 1479 1482 1485 1488 1491 1494 1497 1499 1502 1504 1506 1508 1510 1511 1513 1514 1516 1518 1520 1521 1521 1522 1523 1523 1523 1523 1522 1522 1521 1521 1521 1520 1519 1518 1517 1517 1516 1515 1513 1512
1463 1467 1470 1473 1476 1479 1482 1485 1488 1491 1493 1495 1498 1500 1503 1505 1507 1509 1510 1511 1513 1515 1516 1517 1517 1518 1518 1519 1518 1518 1518 1518 1517 1517 1516 1515 1514 1514 1513 1512 1511 1510 1508
1459 1462 1465 1468 1471 1473 1476 1479 1482 1484 1487 1490 1492 1494 1497 1499 1501 1503 1505 1506 1508 1510 1510 1511 1512 1513 1514 1514 1514 1514 1514 1514 1513 1513 1512 1511 1510 1510 1509 1508 1507 1506 1504
1455 1458 1461 1463 1466 1468 1471 1473 1476 1478 1481 1484 1486 1488 1490 1493 1495 1497 1499 1501 1503 1503 1504 1505 1507 1507 1508 1509 1509 1510 1510 1510 1509 1509 1508 1507 1506 1506 1505 1504 1503 1502 1501
1451 1453 1456 1459 1461 1463 1466 1468 1470 1472 1474 1477 1479 1482 1484 1486 1488 1490 1492 1494 1496 1497 1498 1499 1500 1502 1503 1504 1505 1505 1505 1505 1505 1504 1504 1503 1503 1502 1501 1500 1499 1498 1497
1447 1450 1452 1454 1456 1458 1460 1462 1464 1466 1468 1470 1472 1474 1477 1479 1480 1483 1485 1487 1489 1491 1492 1493 1495 1496 1498 1499 1500 1501 1501 1501 1501 1500 1500 1500 1499 1498 1498 1497 1496 1495 1494
1445 1446 1448 1449 1451 1453 1454 1456 1457 1459 1461 1463 1465 1467 1469 1472 1474 1475 1478 1480 1482 1484 1486 1487 1489 1490 1492 1494 1495 1496 1496 1496 1496 1496 1496 1496 1496 1495 1495 1494 1493 1492 1491
1441 1442 1443 1444 1446 1448 1449 1450 1451 1453 1454 1457 1459 1461 1462 1464 1467 1468 1471 1473 1475 1478 1480 1481 1483 1484 1486 1488 1489 1490 1491 1492 1492 1492 1492 1492 1492 1492 1492 1491 1490 1489 1488
1438 1439 1439 1440 1441 1442 1443 1444 1445 1446 1448 1450 1452 1454 1455 1457 1460 1462 1464 1466 1468 1471 1473 1475 1477 1478 1480 1482 1483 1485 1486 1487 1488 1488 1488 1488 1488 1489 1489 1488 1488 1487 1486
1435 1435 1436 1436 1437 1437 1438 1438 1439 1440 1442 1443 1445 1447 1449 1451 1453 1456 1457 1459 1462 1464 1466 1468 1470 1472 1474 1476 1477 1479 1480 1482 1483 1483 1484 1484 1484 1485 1485 1485 1485 1484 1484
1432 1432 1432 1432 1432 1432 1433 1433 1434 1435 1436 1437 1439 1441 1443 1445 1447 1449 1451 1453 1455 1457 1459 1462 1464 1465 1468 1470 1472 1473 1475 1476 1478 1479 1479 1480 1481 1481 1482 1482 1482 1482 1481
1429 1428 1428 1428 1427 1427 1428 1428 1428 1429 1430 1431 1433 1435 1437 1439 1441 1442 1444 1446 1449 1451 1454 1456 1457 1459 1462 1464 1466 1468 1469 1471 1473 1475 1475 1476 1477 1477 1479 1479 1479 1479 1479
1426 1425 1424 1423 1422 1422 1422 1422 1422 1423 1424 1425 1427 1428 1430 1432 1434 1436 1438 1440 1442 1445 1447 1449 1452 1454 1456 1459 1461 1463 1465 1467 1468 1470 1471 1472 1473 1474 1475 1475 1476 1476 1477
1422 1421 1420 1418 1417 1417 1417 1416 1417 1417 1417 1418 1420 1421 1423 1425 1427 1430 1432 1434 1436 1438 1441 1444 1446 1448 1450 1452 1455 1457 1459 1461 1463 1465 1466 1467 1468 1470 1471 1472 1472 1473 1474
1418 1417 1415 1414 1413 1412 1411 1411 1411 1411 1411 1412 1413 1415 1417 1419 1421 1423 1425 1427 1429 1432 1435 1437 1439 1442 1444 1447 1449 1452 1454 1456 1458 1460 1461 1463 1464 1466 1467 1468 1469 1470 1471